Regional Weather Roundup
Issued by NWS Cleveland, OH

Home | Current Version | Previous Version | Text Only | Print | Product List | Glossary Off
Versions: 1 2 3 4 5 6 7 8 9 10 11 12 13 14 15 16 17 18 19 20 21 22 23 24 25 26 27 28 29 30 31 32 33 34 35 36 37 38 39 40 41 42 43 44 45 46 47 48 49 50

815
ASUS41 KCLE 192012
RWRCLE
OHIO REGIONAL WEATHER ROUNDUP
NATIONAL WEATHER SERVICE WILMINGTON, OH
300 PM EST THU JAN 19 2017

NOTE: "FAIR" INDICATES FEW OR NO CLOUDS BELOW 12,000 FEET WITH NO
SIGNIFICANT WEATHER AND/OR OBSTRUCTIONS TO VISIBILITY.

OHZ001>008-015>018-024>027-034-035-043-044-192100-
   NORTHWEST OHIO

CITY           SKY/WX    TMP DP  RH WIND       PRES   REMARKS
DEFIANCE       PTSUNNY   38  33  82 S5        29.99F
FINDLAY        CLOUDY    40  34  79 SE8       29.98F
TOLEDO EXPRESS CLOUDY    38  35  89 S8        29.99F
TOLEDO EXEC    CLOUDY    39  35  86 SE8       30.00F
LIMA           PTSUNNY   40  37  89 SE10      29.95F
$$

OHZ009>014-019>023-028>033-038-089-192100-
   NORTHEAST OHIO

CITY           SKY/WX    TMP DP  RH WIND       PRES   REMARKS
CLE-HOPKINS    PTSUNNY   45  35  68 SW9       30.03R
CLE-LAKEFRONT  FAIR      39  35  86 N5        30.00R
CUY CO. ARPT   PTSUNNY   46  37  71 S8        30.02R
LORAIN-ELYRIA  PTSUNNY   42  34  73 SW7       30.00F
ASHTABULA      CLOUDY    39  35  86 S3        30.00F
AKRON-CANTON   CLOUDY    41  34  76 S8        30.01S
WOOSTER        CLOUDY    40  34  79 SW8       30.01S
MANSFIELD      PTSUNNY   41  36  82 SE7       29.98F
YOUNGSTOWN     CLOUDY    41  35  79 SW7       30.01R
$$

OHZ042-051>053-060>062-070>072-077>081-192100-
  SOUTHWEST OHIO

CITY           SKY/WX    TMP DP  RH WIND       PRES   REMARKS
CINC-COVINGTON CLOUDY    48  40  73 E6        29.93F
CINC-LUNKEN    FAIR      50  41  71 VRB3      29.96F
HAMILTON       FAIR      49  40  71 SE5       29.96F
DAYTON         PTSUNNY   44  38  79 E9        29.93F
WRIGHT-PAT AFB PTSUNNY   45  40  80 E8        29.93F
DAYTON GENERAL FAIR      46  40  79 E7        29.91F
WILMINGTON     FAIR      47  40  76 E9        29.93F
$$

OHZ036-037-039>041-045>050-054>059-063>069-073>076-082>088-192100-
  CENTRAL AND SOUTHEAST OHIO

CITY           SKY/WX    TMP DP  RH WIND       PRES   REMARKS
COLUMBUS       CLOUDY    44  36  73 E7        30.00F
OSU AIRPORT    FAIR      43  37  79 SE7       29.99F
BOLTON FIELD   MOSUNNY   43  37  81 E6        30.00F
RICKENBACK AFB   N/A     43  38  82 E5        30.00F
NEWARK         CLOUDY    43  36  76 SE3       30.01F
MARION         CLOUDY    41  36  82 S10       29.99F
LANCASTER      FAIR      46  37  71 CALM      30.00F
ZANESVILLE     CLOUDY    41  36  82 S6        30.03F
NEW PHILLY     CLOUDY    40  35  83 S6        30.03R
$$




USA.gov is the U.S. government's official web portal to all federal, state and local government web resources and services.